Wokal Field Glasgow International Airport
KGGW : now visible

Airfield :











YOU CAN JOIN US ON...

 
LOGIN :

Register | Disclaimer

   EN    FR    IT 

 









Legend :    VFR   Marginal VFR   IFR   Intensive IFR   Very Intensive IFR
Visi :
Ceiling :
>= 8 km
>= 3000ft
5 to 8 km
1000 to 3000 ft
1500m to 5 km
500 to 1000 ft
800 to 1500m
200 to 500 ft
< 800m
< 200 ft
Symbols :   Thunderstorms  Fog  Heavy snow  Heavy precipitations  Wind > 20 kt






- Airport Elevation : 2296 ft
- IATA code : GGW


KGGW - Wokal Field Glasgow International

CURRENT METAR :
  • 290453Z AUTO 08010KT 10SM CLR 23/06 A3018 RMK AO2 SLP207 T02280061

EXPIRED METARs :
  • 290353Z AUTO 08010KT 10SM CLR 24/05 A3017 RMK AO2 SLP205 T02390050
  • 290253Z AUTO 07010KT 10SM CLR 26/04 A3016 RMK AO2 SLP199 T02610039 53005

TAF KGGW
Valid from the 29 at 00:00 until the 30 at 00:00 UTC


282320Z 2900/2924 05011KT P6SM FEW140
FM290300 VRB06KT P6SM FEW140
FM291500 13012KT P6SM BKN090
KZLC FIR / North America



MET'MAP, your aeronautical weather chart ! - Copyright ORBIFLY December 2007 - Disclaimer

ORBIFLY MET'MAP TEAM :

Programming & Development : Alexandra Zaïnal
Concept & original design : Baudouin d'Aumeries
Assistance for programming : Marc-Olivier Méhu
Technical & hardware support : Manuel Goepfert

Contact : metmap@orbifly.com




SOURCES & CREDITS :

   NOAA       Earth
Advisory